Content
SEND FEEDBACK

Daily
Averages
Monthly
Summary
Spain

PUERTO DEL ROSARIO, SPAIN


Home > Europe > Spain
Elevation: 98 feet     Latitude: 28 27N     Longitude: 013 52W

WEATHER
 
SELECT A DAY
Number of Records: 221,934;   Date Range: 7/1/96 - 12/26/14
 
SHARE

PRINT THIS DATA

[ ← Previous Day ]
WEATHER ALMANAC - FEBRUARY 17, 2013
[ Next Day → ]
[ °C ]   °F
Weather ElementAverageHighLow
Temperature66 °F69.8 °F (1:30 pm)57.2 °F (6:30 am)
Dewpoint50.9 °F59 °F (10:30 am)30.2 °F (6:30 am)
Humidity59.5 %78 % (10:30 am)36 % (6:30 am)
Barometer30.06 in30.12 in (11:30 am)30.04 in (6:30 am)
Wind Speed2.6 mph5.8 mph (2:00 pm)
Wind Gust12.7 mph (9:00 am)
Weather ElementAverage
Visibility6.2 mi
Wind DirectionNE (48.8 °)

Weather ElementTotal
Precipitation---
Heating Degree Days1.5 (Base 65)
Growing Degree Days13.5 (Base 50)
Averaged from 33 records on February 17, 2013
WEATHER CONDITIONS BREAKOUT
WIND DIRECTION BREAKOUT
WEATHER BY HOUR - FEBRUARY 17, 2013
[ °C ]   °F
Local TimeTemperatureDewpointHumidityBarometerVisibilityWind DirectionWind SpeedGust SpeedPrecipitationEventsConditions
6:30 AM57.2 °F30.2 °F36 %30.04 inVariable2.3 mphClear
7:30 AM57.2 °F30.2 °F36 %30.06 inCalmClear
8:00 AM57.2 °F30.2 °F36 %30.06 inVariable2.3 mphClear
8:30 AM60.8 °F35.6 °F39 %30.06 inVariable2.3 mphClear
9:00 AM64.4 °F42.8 °F45 %30.09 inVariable1.2 mph12.7 mphClear
9:30 AM68.0 °F53.6 °F60 %30.09 inCalmClear
10:00 AM66.2 °F57.2 °F73 %30.09 inSE (140°)4.6 mphClear
10:30 AM66.2 °F59.0 °F78 %30.09 inSE (140°)4.6 mphClear
11:00 AM66.2 °F55.4 °F68 %30.09 inESE (110°)3.5 mphClear
11:30 AM68.0 °F53.6 °F60 %30.12 inEast (90°)3.5 mphClear
12:00 PM68.0 °F53.6 °F60 %30.09 inVariable2.3 mphClear
12:30 PM68.0 °F55.4 °F64 %30.09 inENE (60°)4.6 mphClear
1:00 PM68.0 °F57.2 °F68 %30.09 inNE (50°)4.6 mphClear
1:30 PM69.8 °F53.6 °F56 %30.06 inENE (70°)3.5 mphClear
2:00 PM68.0 °F57.2 °F68 %30.06 inNE (50°)5.8 mphClear
2:30 PM69.8 °F55.4 °F60 %30.06 inNE (50°)5.8 mphClear
3:00 PM69.8 °F48.2 °F46 %30.06 inEast (80°)5.8 mphClear
3:30 PM69.8 °F48.2 °F46 %30.04 inEast (80°)4.6 mphClear
4:00 PM68.0 °F55.4 °F64 %30.04 inSSE (150°)4.6 mphClear
4:30 PM68.0 °F55.4 °F64 %30.04 inSE (130°)4.6 mphClear
5:00 PM68.0 °F57.2 °F68 %30.04 in6.2 miENE (60°)5.8 mphPartly Cloudy
5:30 PM69.8 °F44.6 °F40 %30.04 in6.2 miVariable2.3 mphPartly Cloudy
6:00 PM69.8 °F46.4 °F43 %30.04 in6.2 miCalmPartly Cloudy
6:30 PM68.0 °F53.6 °F60 %30.04 in6.2 miCalmPartly Cloudy
7:00 PM66.2 °F55.4 °F68 %30.04 in6.2 miCalmPartly Cloudy
7:30 PM66.2 °F57.2 °F73 %30.04 in6.2 miCalmPartly Cloudy
8:00 PM66.2 °F57.2 °F73 %30.04 in6.2 miCalmPartly Cloudy
8:30 PM66.2 °F57.2 °F73 %30.04 in6.2 miCalmPartly Cloudy
9:00 PM66.2 °F59.0 °F78 %30.04 in6.2 miCalmPartly Cloudy
9:30 PM64.4 °F57.2 °F77 %30.04 in6.2 miVariable2.3 mphPartly Cloudy
10:00 PM62.6 °F51.8 °F68 %30.04 in6.2 miNorth (350°)3.5 mphPartly Cloudy
10:30 PM64.4 °F50.0 °F59 %30.04 in6.2 miVariable2.3 mphPartly Cloudy
11:00 PM62.6 °F46.4 °F55 %30.04 in6.2 miCalmPartly Cloudy
Hourly data recorded from GCFV, located miles away from Puerto del Rosario, Spain







STORIES FROM OUR PARTNERS